Jamestown, ND

3:16 PM CDT on April 30, 2017 (GMT -0500)
Jamestown Municipal

Weather History for KJMS - November, 2012

Change the Weather History Date:

Sunday, November 11, 2012

  Actual Average Record
Temperature  
Mean Temperature 18 °F 30 °F  
Max Temperature 22 °F 40 °F 69 °F (2005)
Min Temperature 14 °F 21 °F -13 °F (1911)
Degree Days  
Heating Degree Days 47 35  
Month to date heating degree days 365 348  
Since 1 July heating degree days 1331 1315  
Cooling Degree Days 0 0  
Month to date cooling degree days 0 0  
Year to date cooling degree days 575 446  
Moisture  
Dew Point 12 °F    
Average Humidity 78    
Maximum Humidity 88    
Minimum Humidity 67    
Precipitation  
Precipitation T in 0.02 in 0.50 in (1922)
Month to date precipitation 0.26 0.28  
Year to date precipitation 12.81 18.02  
Sea Level Pressure  
Sea Level Pressure 29.82 in    
Wind  
Wind Speed 20 mph (WNW)    
Max Wind Speed 28 mph    
Max Gust Speed 36 mph    
Visibility 7 miles    
Events Snow    
T = Trace of Precipitation, MM = Missing Value Source: NWS Daily Summary

Daily Weather History Graph

Daily Weather History Graph

Search for Another Location

Airport or City:

Trip Planner

Search our weather history database for the weather conditions in past years. The results will help you decide how hot, cold, wet, or windy it might be!

Date:

Astronomy

Nov. 11, 2012 Rise Set
Actual Time 7:32 AM CST 5:04 PM CST
Civil Twilight 7:00 AM CST 5:37 PM CST
Nautical Twilight 6:23 AM CST 6:13 PM CST
Astronomical Twilight 5:47 AM CST 6:49 PM CST
Moon 4:40 AM CST (11/11) 3:34 PM CST (11/11)
Length of Visible Light 10h 36m
Length of Day
9h 31m
Waning Crescent, 7% of the Moon is Illuminated
Nov 11
Waning Crescent
Nov 13
New
Nov 20
First Quarter
Nov 28
Full
Dec 6
Last Quarter

Hourly Weather History & Observations

Time (CST) Temp. Windchill Dew Point Humidity Pressure Visibility Wind Dir Wind Speed Gust Speed Precip Events Conditions
12:56 AM 21.0 °F 5.7 °F 17.1 °F 85% 29.72 in 10.0 mi WNW 19.6 mph 27.6 mph 0.00 in   Mostly Cloudy
1:56 AM 21.0 °F 5.4 °F 17.1 °F 85% 29.75 in 10.0 mi WNW 20.7 mph - N/A   Overcast
2:36 AM 21.2 °F 3.9 °F 15.8 °F 80% 29.68 in 9.0 mi WNW 26.5 mph 33.4 mph 0.00 in   Overcast
2:56 AM 19.9 °F 3.2 °F 16.0 °F 85% 29.74 in 4.0 mi WNW 23.0 mph 35.7 mph 0.00 in Snow Light Snow
3:56 AM 19.0 °F 4.0 °F 14.0 °F 81% 29.75 in 10.0 mi West 17.3 mph 28.8 mph 0.00 in   Overcast
4:03 AM 19.4 °F 3.6 °F 14.0 °F 80% 29.70 in 10.0 mi West 19.6 mph - N/A   Overcast
4:56 AM 19.0 °F 2.0 °F 14.0 °F 81% 29.78 in 10.0 mi WNW 23.0 mph 28.8 mph N/A   Overcast
5:22 AM 17.6 °F 1.7 °F 12.2 °F 79% 29.72 in 10.0 mi West 18.4 mph 27.6 mph N/A   Overcast
5:56 AM 17.1 °F 1.0 °F 12.9 °F 84% 29.80 in 10.0 mi West 18.4 mph - N/A   Overcast
6:56 AM 15.1 °F -2.0 °F 10.0 °F 80% 29.82 in 10.0 mi West 19.6 mph - N/A   Overcast
7:56 AM 14.0 °F -3.0 °F 9.0 °F 80% 29.83 in 9.0 mi West 18.4 mph 24.2 mph N/A   Overcast
8:56 AM 15.1 °F -0.1 °F 9.0 °F 77% 29.85 in 10.0 mi West 15.0 mph - N/A   Overcast
9:11 AM 15.8 °F 0.3 °F 8.6 °F 73% 29.77 in 10.0 mi West 16.1 mph 21.9 mph N/A   Overcast
9:29 AM 15.8 °F -0.2 °F 10.4 °F 79% 29.78 in 10.0 mi West 17.3 mph - N/A   Overcast
9:56 AM 15.1 °F -0.1 °F 9.0 °F 77% 29.86 in 9.0 mi West 15.0 mph 25.3 mph N/A   Overcast
10:35 AM 15.8 °F -1.1 °F 8.6 °F 73% 29.78 in 10.0 mi West 19.6 mph 26.5 mph N/A   Overcast
10:56 AM 16.0 °F -1.7 °F 9.0 °F 74% 29.85 in 10.0 mi West 21.9 mph 28.8 mph N/A   Overcast
11:56 AM 17.1 °F 0.1 °F 10.0 °F 74% 29.84 in 10.0 mi West 20.7 mph 29.9 mph N/A   Overcast
12:56 PM 18.0 °F 1.3 °F 10.9 °F 74% 29.84 in 9.0 mi West 20.7 mph 28.8 mph 0.00 in Snow Light Snow
1:56 PM 19.0 °F 3.2 °F 10.9 °F 71% 29.85 in 10.0 mi West 19.6 mph - 0.00 in   Overcast
2:08 PM 19.4 °F 2.1 °F 10.4 °F 68% 29.77 in 10.0 mi West 24.2 mph 32.2 mph N/A   Overcast
2:56 PM 19.0 °F 2.7 °F 10.9 °F 71% 29.85 in 10.0 mi WNW 20.7 mph 25.3 mph N/A   Overcast
3:07 PM 19.4 °F 3.6 °F 12.2 °F 74% 29.77 in 5.0 mi West 19.6 mph 25.3 mph 0.00 in Snow Light Snow
3:17 PM 19.4 °F 3.2 °F 12.2 °F 74% 29.78 in 3.0 mi WNW 20.7 mph 27.6 mph 0.00 in Snow Light Snow
3:28 PM 19.4 °F 4.1 °F 10.4 °F 68% 29.78 in 9.0 mi WNW 18.4 mph 26.5 mph 0.00 in Snow Light Snow
3:56 PM 19.0 °F 3.6 °F 10.0 °F 68% 29.87 in 10.0 mi WNW 18.4 mph 26.5 mph 0.00 in   Overcast
4:56 PM 18.0 °F 2.6 °F 10.0 °F 71% 29.88 in 10.0 mi WNW 17.3 mph 26.5 mph N/A   Overcast
5:56 PM 17.1 °F 0.6 °F 9.0 °F 71% 29.89 in 10.0 mi WNW 19.6 mph 28.8 mph 0.00 in   Overcast
6:03 PM 17.6 °F 0.9 °F 10.4 °F 73% 29.81 in 10.0 mi West 20.7 mph 27.6 mph N/A   Overcast
6:28 PM 17.6 °F 1.7 °F 10.4 °F 73% 29.81 in 9.0 mi WNW 18.4 mph 24.2 mph 0.00 in Snow Light Snow
6:56 PM 17.1 °F 2.0 °F 10.0 °F 74% 29.90 in 10.0 mi WNW 16.1 mph 26.5 mph 0.00 in   Overcast
7:56 PM 17.1 °F 1.5 °F 10.9 °F 77% 29.91 in 5.0 mi WNW 17.3 mph - 0.00 in   Haze
8:13 PM 17.6 °F 3.7 °F 12.2 °F 79% 29.82 in 2.5 mi WNW 13.8 mph - 0.00 in Snow Light Snow
8:22 PM 17.6 °F 1.3 °F 12.2 °F 79% 29.82 in 3.0 mi WNW 19.6 mph 24.2 mph 0.00 in Snow Light Snow
8:32 PM 17.6 °F 2.7 °F 12.2 °F 79% 29.82 in 2.0 mi WNW 16.1 mph 24.2 mph 0.00 in Snow Light Snow
8:39 PM 17.6 °F 2.2 °F 12.2 °F 79% 29.82 in 1.8 mi WNW 17.3 mph - 0.00 in Snow Light Snow
8:44 PM 17.6 °F 2.2 °F 12.2 °F 79% 29.82 in 3.0 mi WNW 17.3 mph - 0.00 in Snow Light Snow
8:56 PM 17.1 °F 3.6 °F 12.9 °F 84% 29.91 in 3.0 mi WNW 12.7 mph - 0.00 in Snow Light Snow
9:03 PM 17.6 °F 1.7 °F 12.2 °F 79% 29.83 in 2.5 mi WNW 18.4 mph - 0.00 in Snow Light Snow
9:36 PM 17.6 °F 0.1 °F 12.2 °F 79% 29.84 in 4.0 mi WNW 23.0 mph 29.9 mph 0.00 in Snow Light Snow
9:56 PM 17.1 °F 0.6 °F 12.0 °F 81% 29.93 in 3.0 mi WNW 19.6 mph 29.9 mph 0.00 in Snow Light Snow
10:02 PM 17.6 °F 0.5 °F 12.2 °F 79% 29.84 in 2.5 mi WNW 21.9 mph 29.9 mph 0.00 in Snow Light Snow
10:19 PM 17.6 °F 1.3 °F 10.4 °F 73% 29.84 in 4.0 mi WNW 19.6 mph 28.8 mph 0.00 in Snow Light Snow
10:38 PM 17.6 °F 1.7 °F 12.2 °F 79% 29.84 in 2.0 mi WNW 18.4 mph 24.2 mph 0.00 in Snow Light Snow
10:43 PM 17.6 °F 0.5 °F 12.2 °F 79% 29.84 in 1.2 mi WNW 21.9 mph 29.9 mph 0.00 in Snow Light Snow
10:56 PM 16.0 °F -2.8 °F 12.0 °F 84% 29.93 in 1.0 mi WNW 25.3 mph 31.1 mph 0.00 in Snow Light Snow
11:56 PM 16.0 °F -3.5 °F 12.0 °F 84% 29.93 in 1.2 mi WNW 27.6 mph 34.5 mph 0.00 in Snow Light Snow